Location: Unspecified
(0.0000°N, 0.0000°E)
Time: 09:30:34
(UTC+00:00)

Cosmos 1574 - Pass Details

Date: 14 June 2023
Orbit: 964 x 1003 km, 83.0° (Epoch: 03 October)

Event Time Altitude Azimuth Distance (km) Brightness Sun altitude
Rises 19:04:44 0° 225° (SW) 3,697 9.3 -14.8°
Reaches altitude 10° 19:09:43 10° 259° (W) 2,754 9.2 -15.9°
Maximum altitude 19:11:12 11° 273° (W) 2,693 9.4 -16.2°
Drops below altitude 10° 19:12:42 10° 287° (WNW) 2,757 9.7 -16.6°
Sets 19:17:45 0° 322° (NW) 3,709 10.2 -17.7°
